Location: Roc des P�zouls
(43.9667°N, 3.5500°E)
Time: 13:17:23
(UTC+00:00)

STARLINK-60 - Pass Details

Date: 14 November 2019
Orbit: 416 x 424 km, 53.0° (Epoch: 14 December)

Event Time Altitude Azimuth Distance (km) Brightness Sun altitude
Exits shadow 04:55:13 27° 354° (N) 830 4.4 -18.7°
Drops below altitude 10° 04:57:45 10° 41° (NE) 1,497 6.3 -18.2°
Sets 05:00:03 0° 54° (NE) 2,363 7.6 -17.8°
